Vorticity
9 9 9 9 9 8 8 8 8 8 8 8 8 8 8 8 9 9 9 9 9 9 10 10 10 10 10 10 10 10 10 11 12 13 13 14 14 14 14 13 13 13 11 10 8 6 5 3 2 2 3 5 6 6 6 6 6 6 6 6 8 9 9 5 4 5 6 7 8
8 8 8 8 8 8 8 8 8 8 8 9 9 9 9 9 10 10 10 10 11 11 11 11 12 12 12 12 11 11 11 11 12 12 13 13 13 14 15 15 16 17 17 16 15 13 10 7 4 3 2 3 4 4 5 5 5 5 6 9 12 12 10 9 8 6 5 3 6
8 7 8 8 8 8 8 8 9 9 9 9 9 9 9 10 10 11 11 12 12 12 13 13 13 13 13 13 13 13 12 12 12 12 12 12 12 12 12 13 14 15 16 17 18 18 17 15 12 9 7 5 4 4 4 5 4 7 13 21 13 11 11 12 10 9 8 6 7
8 8 8 8 9 9 9 9 9 9 9 9 9 10 11 11 12 12 12 12 13 13 12 12 11 11 11 11 11 11 12 12 12 12 12 11 11 11 11 11 11 12 12 13 14 16 17 19 19 17 15 12 9 8 6 5 4 6 6 -0 5 9 10 11 10 10 10 9 9
9 9 9 9 9 9 8 8 8 8 9 10 11 12 12 13 13 12 12 11 11 10 9 9 9 8 9 9 10 10 11 12 13 12 12 11 12 12 12 12 12 12 11 11 12 12 13 15 17 19 19 18 16 14 12 10 7 6 6 10 8 7 6 6 7 7 7 8 10
10 10 9 9 8 8 8 8 9 10 11 12 12 12 12 11 10 10 9 8 8 8 8 9 9 10 10 12 13 14 14 14 14 14 13 13 14 15 15 15 15 15 15 14 14 13 13 12 13 15 17 19 19 18 16 11 12 10 7 6 4 3 4 4 3 3 4 6 6
9 9 8 8 8 8 9 10 11 12 12 12 11 11 10 9 8 8 8 8 9 10 10 11 12 12 13 14 15 16 16 16 16 16 16 16 17 17 18 18 18 18 18 18 18 17 16 15 14 14 16 17 18 20 19 16 11 7 5 5 5 5 5 4 3 2 3 6 5
8 7 7 7 8 10 11 12 12 12 11 11 10 9 8 8 8 9 10 11 11 12 12 12 12 12 13 14 15 15 16 17 18 19 20 20 20 20 20 20 20 20 20 20 20 20 20 19 19 18 18 17 18 18 19 19 14 8 3 3 5 6 7 6 6 5 5 5 3
7 7 8 9 10 11 12 12 11 10 10 9 9 9 9 10 10 11 12 12 12 12 11 11 11 11 12 13 14 16 18 20 22 24 24 25 24 24 24 24 23 23 22 22 22 22 22 22 23 23 22 21 20 20 19 19 19 15 10 5 5 6 7 7 7 7 7 7 5
8 8 10 11 11 12 11 10 10 10 9 9 9 10 11 11 12 12 12 11 10 9 9 10 11 12 14 17 19 21 23 25 26 27 27 27 27 27 27 27 26 26 26 26 25 25 24 23 24 25 26 26 25 24 22 20 20 19 17 13 9 7 7 7 8 8 9 10 9
9 10 11 11 11 11 10 10 10 10 10 10 10 11 11 11 10 10 9 8 8 8 10 11 15 18 22 25 27 28 28 27 26 25 25 25 26 27 27 28 28 29 28 28 28 27 27 26 25 25 26 26 27 27 26 22 21 20 19 18 16 14 12 11 9 9 9 10 11
11 11 12 11 11 10 10 11 11 11 11 11 10 10 9 8 8 7 7 8 9 11 14 17 22 26 29 31 30 28 26 22 20 19 19 20 22 24 26 27 28 29 29 29 29 29 30 30 28 27 26 25 25 27 28 28 27 25 24 23 22 20 18 17 12 8 6 7 11
11 11 11 11 11 11 11 11 11 11 10 10 9 8 7 6 7 8 10 13 16 19 22 25 28 29 30 28 24 20 17 14 13 13 15 17 20 23 26 27 28 29 29 30 30 31 31 32 32 31 29 28 27 27 28 28 28 28 26 26 26 25 25 24 22 17 12 8 10
12 11 11 11 12 12 12 11 11 10 8 7 6 5 6 8 11 14 18 21 24 26 27 28 27 26 22 18 14 11 9 9 10 12 14 17 21 25 28 29 29 29 30 32 31 30 28 27 28 29 30 30 29 28 29 29 29 28 27 27 26 26 26 27 27 26 23 16 15
11 11 12 12 12 12 11 10 9 7 6 4 5 6 9 13 18 21 23 24 25 25 24 23 20 17 13 10 8 8 9 12 13 15 16 19 23 27 30 32 32 32 32 32 25 16 11 10 16 22 26 28 26 25 25 26 27 28 27 26 24 24 25 26 25 26 26 25 22
11 12 12 13 12 11 10 8 6 5 4 4 7 10 15 19 21 21 19 18 17 16 16 15 13 11 10 9 11 13 16 18 18 17 18 19 23 27 31 35 37 38 36 29 13 4 3 10 18 23 24 23 21 20 20 21 23 24 25 24 23 22 22 21 20 21 23 25 25
12 13 13 13 11 10 8 6 4 4 4 6 11 15 18 19 16 13 10 9 10 10 11 11 11 11 12 14 17 20 23 23 21 19 18 19 22 25 29 34 40 43 40 29 14 11 16 26 32 31 27 21 17 16 16 17 18 20 21 21 21 20 19 19 19 19 20 21 23
13 13 13 12 10 8 5 4 3 4 7 10 14 16 15 12 8 6 5 7 9 11 12 13 14 15 16 18 21 24 26 26 23 20 18 18 19 19 22 28 38 44 44 34 23 21 24 29 31 30 26 20 16 14 13 14 15 17 18 19 18 16 15 15 17 19 19 19 18
14 13 12 10 7 5 4 3 4 6 9 13 14 13 9 5 4 4 6 9 12 14 15 16 16 17 18 19 22 25 26 26 24 21 18 17 17 15 15 19 28 36 40 39 31 26 23 21 21 21 22 21 18 16 14 13 13 15 17 17 14 12 12 14 16 18 19 19 17
14 12 10 8 5 4 3 4 5 8 11 13 11 8 5 3 4 6 9 12 14 16 17 17 17 17 17 19 21 23 25 27 25 22 20 18 18 16 14 13 17 23 28 31 26 21 16 12 12 14 16 19 20 18 16 14 15 15 15 14 12 12 12 14 15 17 19 21 18
13 11 8 5 4 4 4 5 7 9 11 11 8 4 3 4 6 8 11 12 14 16 17 17 17 17 17 18 19 21 24 26 26 25 23 21 21 20 18 14 12 12 12 9 3 -0 1 5 9 11 13 13 14 15 17 20 18 16 14 14 15 15 15 14 13 16 20 25 20
11 9 6 5 4 4 5 6 7 9 10 9 5 3 3 4 7 9 11 12 13 15 16 17 17 17 17 18 18 20 22 24 26 27 26 25 24 24 22 18 14 11 8 3 -3 -4 -2 4 9 12 12 10 10 14 19 23 18 16 15 18 19 20 19 18 16 15 17 24 23
10 7 6 5 5 6 6 6 7 8 8 6 4 3 3 5 7 9 10 11 12 13 15 16 17 17 17 18 18 19 20 21 24 26 27 28 27 25 23 20 16 14 12 11 9 8 7 6 7 9 11 12 15 18 19 17 15 16 18 21 22 22 22 22 20 17 16 18 20
9 7 7 6 7 7 7 7 6 6 5 5 4 4 4 5 6 8 9 10 11 12 13 15 16 17 18 18 18 18 18 19 20 23 25 28 28 28 25 23 19 16 14 13 13 13 13 12 12 14 17 21 22 21 17 13 14 16 18 20 21 22 23 23 23 20 17 15 15
9 8 8 8 8 8 8 7 5 4 3 3 4 4 5 5 6 7 8 9 10 11 12 13 14 16 17 18 19 19 19 18 19 20 22 25 27 29 29 27 25 22 20 18 18 17 18 19 21 22 23 24 24 22 19 16 15 16 17 18 20 21 21 22 21 20 18 16 15
10 9 9 8 8 9 9 8 5 2 1 1 3 4 5 6 6 6 7 8 9 10 10 11 12 14 16 18 19 20 20 20 19 19 20 21 23 25 26 27 27 26 24 23 22 22 23 25 27 26 22 13 10 12 15 16 15 15 15 16 17 18 18 18 19 18 18 17 17
11 10 9 9 10 11 12 10 6 3 1 1 3 4 5 6 5 6 6 7 8 9 9 10 11 12 14 16 18 20 21 22 22 21 20 20 20 21 21 22 23 23 23 22 21 21 21 20 21 21 20 15 9 7 8 12 14 15 16 16 16 16 16 17 17 17 17 16 16
10 10 10 11 13 15 15 13 9 5 2 1 3 4 5 5 6 6 6 6 7 8 8 9 10 11 12 13 16 18 20 22 23 24 23 23 22 21 20 20 20 20 20 20 20 19 16 12 10 11 14 16 15 14 14 15 17 19 20 19 19 18 18 17 17 17 16 15 14
10 10 12 15 17 18 17 16 12 8 5 3 3 4 5 5 6 6 6 6 6 7 7 8 8 9 10 11 13 15 17 20 22 24 25 26 26 25 24 23 22 22 21 21 21 20 18 14 11 10 12 15 19 21 23 24 25 26 26 25 24 23 22 21 19 18 17 16 15
11 13 15 17 18 18 18 17 14 11 8 6 5 5 5 6 6 6 6 6 6 6 6 7 7 8 8 9 10 12 13 15 18 20 22 25 26 28 28 28 28 27 27 26 25 24 22 21 20 21 23 26 28 30 31 31 32 31 31 30 29 27 26 24 22 21 19 19 18
12 13 14 14 15 16 17 17 15 13 10 8 7 6 6 6 6 7 7 7 7 6 6 6 6 7 8 8 9 9 10 12 13 14 16 18 21 24 26 28 30 31 31 31 31 30 30 30 31 31 32 33 33 33 33 33 33 32 31 30 27 25 23 20 18 17 16 15 15
10 10 10 11 12 13 14 15 14 13 11 10 8 8 7 7 6 7 7 8 8 7 7 7 7 7 7 7 8 8 9 10 11 12 12 13 14 16 18 21 23 26 28 29 30 30 30 30 29 29 29 28 28 27 26 25 23 21 18 15 12 9 7 5 5 5 5 6 6
7 7 7 8 9 10 11 12 12 12 11 11 10 9 8 7 7 7 7 8 8 8 8 7 7 7 8 8 8 8 9 10 11 12 12 12 12 11 11 12 14 15 16 18 19 19 19 19 17 16 14 13 11 8 6 3 -0 -2 -2 -2 -1 1 3 6 8 10 11 12 11
5 5 5 5 6 6 7 8 9 10 10 11 11 11 10 9 8 7 7 7 8 8 8 8 7 8 8 8 9 9 9 10 11 12 13 14 14 13 12 10 9 8 7 6 6 6 5 4 3 2 0 -2 -3 -4 -4 -3 0 4 9 14 18 21 24 26 27 28 28 27 26
4 4 4 4 4 5 5 6 7 8 9 11 12 12 12 11 10 8 7 7 7 8 8 8 8 8 8 9 10 11 11 11 11 11 12 13 15 16 16 15 13 11 9 7 4 2 1 -0 -1 -0 1 3 5 8 11 15 19 23 25 26 25 23 22 21 20 19 19 19 19
4 5 5 5 5 5 6 6 7 8 10 11 13 14 14 14 12 11 9 8 9 9 9 9 8 7 8 9 11 13 13 13 12 11 11 11 13 15 16 17 17 17 17 16 14 13 12 12 12 14 16 18 20 20 19 18 16 14 12 11 9 9 9 9 10 10 11 11 10
6 7 7 8 8 8 8 9 9 10 11 13 14 15 15 15 15 14 13 12 12 12 11 10 8 7 7 8 10 12 13 14 13 12 11 10 11 12 13 15 16 17 18 19 19 20 20 21 21 21 20 19 18 16 13 11 10 8 8 8 8 8 8 8 7 6 6 5 4
8 9 10 10 11 11 12 12 13 13 14 14 15 15 16 16 16 16 15 15 14 13 12 10 8 7 6 7 8 9 11 12 12 11 10 10 9 9 10 11 12 13 14 14 15 15 16 16 16 16 15 14 13 12 11 10 9 8 8 8 8 8 7 6 5 4 3 3 4
9 10 11 12 13 13 14 15 15 15 15 15 15 15 16 15 15 15 14 14 13 12 10 9 7 6 5 5 6 6 7 8 9 9 9 9 8 8 9 9 10 10 11 11 11 12 12 12 12 12 12 11 10 10 9 8 8 9 9 10 10 10 10 10 10 10 10 10 10
10 11 12 13 14 14 15 16 16 16 15 15 15 14 13 13 12 11 11 10 9 9 7 6 5 4 4 4 4 5 5 5 6 7 7 7 7 8 8 8 9 9 10 10 10 10 10 10 9 9 8 8 8 8 9 9 11 11 12 12 12 12 12 12 12 12 12 12 11
11 12 13 13 14 14 15 15 15 15 14 13 12 11 10 9 8 7 6 6 5 5 5 4 4 4 4 4 5 5 5 6 6 7 7 7 7 8 8 8 8 8 8 8 7 7 7 6 6 7 7 8 9 10 11 12 12 12 12 12 11 11 10 10 10 10 10 9 9
Height
5741 5741 5740 5740 5739 5739 5739 5738 5737 5737 5736 5735 5735 5734 5733 5733 5732 5731 5730 5729 5729 5727 5726 5725 5724 5724 5722 5721 5720 5719 5718 5717 5715 5714 5712 5711 5710 5709 5708 5707 5707 5707 5707 5706 5705 5705 5704 5704 5704 5704 5704 5704 5704 5704 5705 5706 5707 5707 5706 5705 5704 5704 5704 5704 5704 5704 5704 5705 5705
5738 5738 5737 5737 5736 5736 5735 5734 5734 5733 5733 5732 5731 5730 5729 5729 5728 5727 5726 5726 5724 5723 5722 5721 5720 5719 5718 5716 5715 5714 5713 5712 5710 5708 5707 5705 5704 5703 5701 5701 5701 5701 5701 5700 5699 5699 5699 5698 5698 5698 5699 5699 5699 5700 5700 5700 5701 5701 5700 5700 5699 5699 5699 5698 5698 5699 5700 5701 5700
5735 5735 5734 5734 5733 5733 5732 5731 5731 5730 5729 5728 5728 5727 5726 5725 5724 5723 5722 5721 5720 5719 5718 5716 5715 5714 5713 5711 5710 5709 5708 5707 5705 5703 5701 5699 5698 5696 5695 5694 5694 5694 5694 5694 5693 5693 5693 5692 5692 5693 5693 5694 5694 5695 5695 5696 5696 5696 5695 5694 5694 5694 5693 5692 5693 5694 5696 5696 5696
5732 5732 5731 5731 5730 5729 5729 5728 5728 5727 5726 5725 5724 5723 5722 5721 5720 5719 5718 5717 5716 5715 5714 5712 5711 5709 5708 5707 5705 5704 5703 5702 5700 5698 5695 5693 5692 5690 5689 5688 5687 5687 5686 5686 5687 5687 5687 5686 5686 5686 5687 5688 5689 5690 5691 5691 5692 5692 5690 5689 5689 5689 5689 5689 5689 5690 5691 5691 5692
5730 5729 5729 5728 5727 5727 5726 5725 5724 5724 5723 5722 5721 5720 5719 5718 5717 5716 5714 5714 5712 5711 5709 5708 5707 5705 5704 5702 5700 5699 5698 5697 5695 5693 5690 5688 5686 5684 5682 5681 5680 5679 5679 5679 5680 5681 5681 5679 5679 5680 5681 5682 5684 5685 5686 5686 5688 5687 5685 5685 5684 5684 5684 5685 5685 5686 5687 5687 5687
5727 5726 5726 5725 5724 5724 5723 5722 5722 5721 5720 5719 5718 5717 5716 5715 5714 5713 5711 5710 5709 5707 5705 5704 5702 5701 5699 5698 5695 5694 5692 5691 5689 5688 5685 5682 5680 5678 5676 5674 5673 5672 5672 5672 5672 5673 5673 5672 5672 5673 5674 5676 5677 5678 5679 5681 5682 5681 5679 5679 5679 5679 5680 5680 5680 5681 5682 5682 5682
5724 5724 5723 5722 5722 5721 5720 5719 5719 5718 5717 5716 5715 5714 5713 5712 5710 5709 5708 5706 5704 5703 5701 5700 5698 5696 5695 5693 5691 5688 5686 5684 5683 5681 5679 5677 5674 5672 5669 5668 5666 5665 5664 5664 5664 5664 5665 5665 5667 5668 5668 5669 5670 5672 5673 5675 5675 5675 5674 5674 5674 5674 5675 5674 5674 5675 5677 5678 5679
5721 5720 5720 5719 5719 5718 5717 5716 5716 5715 5714 5713 5712 5711 5709 5708 5707 5705 5704 5702 5700 5699 5697 5695 5693 5692 5691 5689 5686 5683 5680 5678 5676 5674 5673 5671 5668 5666 5663 5662 5660 5659 5658 5657 5657 5658 5658 5658 5660 5660 5660 5662 5663 5664 5666 5667 5668 5668 5669 5670 5670 5669 5669 5669 5669 5670 5672 5672 5674
5718 5718 5717 5716 5716 5715 5714 5714 5713 5712 5711 5710 5709 5708 5706 5705 5704 5702 5700 5699 5696 5694 5692 5690 5688 5687 5686 5684 5681 5678 5674 5672 5670 5668 5665 5664 5661 5659 5657 5656 5654 5653 5652 5651 5651 5651 5651 5651 5652 5653 5654 5654 5656 5657 5658 5660 5661 5662 5663 5663 5663 5664 5664 5665 5665 5666 5666 5667 5668
5715 5714 5714 5714 5713 5712 5711 5710 5710 5709 5708 5707 5706 5704 5703 5702 5700 5699 5697 5695 5693 5690 5688 5685 5683 5681 5680 5678 5675 5672 5669 5666 5664 5661 5659 5657 5655 5653 5651 5649 5648 5647 5646 5645 5645 5644 5645 5645 5646 5646 5647 5648 5649 5650 5651 5653 5655 5656 5657 5658 5659 5659 5660 5662 5662 5662 5662 5662 5663
5712 5712 5711 5711 5710 5709 5709 5708 5707 5706 5705 5704 5703 5702 5700 5699 5697 5696 5694 5691 5689 5687 5684 5681 5678 5675 5673 5671 5669 5666 5664 5661 5658 5656 5653 5651 5649 5647 5645 5644 5643 5642 5640 5639 5639 5639 5639 5639 5640 5640 5641 5642 5643 5644 5645 5647 5649 5651 5653 5654 5655 5655 5656 5657 5658 5658 5658 5658 5659
5709 5709 5708 5708 5707 5706 5706 5705 5704 5703 5702 5701 5700 5699 5698 5696 5694 5693 5690 5688 5685 5683 5679 5676 5673 5670 5668 5665 5663 5661 5659 5656 5654 5651 5649 5646 5644 5642 5640 5638 5637 5636 5635 5634 5634 5634 5634 5634 5634 5635 5635 5636 5637 5638 5639 5640 5643 5645 5647 5649 5651 5652 5652 5653 5654 5655 5655 5654 5655
5707 5706 5705 5705 5704 5704 5703 5702 5701 5700 5700 5699 5698 5696 5695 5693 5691 5689 5687 5684 5682 5679 5676 5673 5669 5666 5664 5661 5659 5657 5654 5652 5649 5647 5644 5642 5639 5637 5635 5633 5632 5630 5629 5629 5629 5629 5629 5629 5629 5630 5630 5631 5631 5632 5633 5634 5636 5639 5641 5643 5645 5647 5649 5649 5651 5652 5652 5650 5651
5704 5703 5703 5702 5701 5701 5700 5699 5699 5698 5697 5696 5695 5694 5692 5690 5688 5686 5684 5681 5678 5675 5672 5669 5666 5663 5661 5658 5655 5653 5651 5648 5645 5643 5640 5638 5635 5633 5630 5629 5627 5626 5625 5624 5624 5624 5625 5624 5625 5625 5626 5626 5627 5628 5629 5630 5631 5633 5635 5637 5639 5641 5644 5645 5646 5648 5648 5647 5646
5701 5700 5700 5699 5699 5698 5698 5697 5696 5696 5695 5694 5693 5691 5689 5688 5685 5683 5681 5678 5675 5672 5669 5666 5663 5660 5658 5655 5652 5649 5647 5644 5642 5639 5636 5634 5631 5629 5626 5624 5622 5621 5621 5620 5621 5621 5621 5621 5621 5622 5622 5623 5624 5624 5625 5626 5627 5628 5629 5631 5633 5635 5638 5639 5640 5641 5641 5642 5642
5698 5698 5697 5697 5696 5696 5695 5695 5694 5693 5692 5691 5690 5689 5687 5685 5683 5681 5678 5675 5673 5669 5667 5664 5661 5658 5655 5652 5649 5646 5643 5640 5638 5635 5633 5630 5627 5625 5622 5620 5618 5617 5617 5617 5617 5618 5618 5618 5619 5619 5620 5620 5620 5621 5621 5622 5623 5624 5625 5626 5628 5629 5631 5634 5634 5635 5635 5636 5637
5696 5695 5695 5694 5694 5694 5693 5693 5692 5691 5690 5689 5688 5686 5684 5683 5680 5678 5675 5673 5670 5667 5664 5661 5658 5655 5652 5649 5646 5643 5640 5637 5634 5632 5629 5627 5624 5622 5619 5617 5615 5614 5614 5613 5614 5615 5615 5616 5616 5617 5617 5617 5618 5618 5619 5619 5620 5620 5621 5622 5623 5625 5626 5628 5629 5630 5631 5633 5633
5693 5693 5693 5692 5692 5691 5691 5690 5689 5689 5688 5687 5685 5684 5682 5680 5678 5675 5673 5670 5667 5664 5661 5658 5655 5652 5649 5645 5642 5639 5636 5634 5631 5629 5626 5624 5622 5619 5617 5615 5613 5612 5610 5610 5611 5612 5613 5613 5613 5614 5614 5615 5615 5615 5616 5616 5617 5618 5618 5619 5620 5621 5623 5624 5624 5625 5626 5629 5630
5691 5690 5690 5690 5689 5689 5689 5688 5687 5686 5685 5684 5683 5681 5679 5677 5675 5673 5670 5668 5665 5662 5659 5656 5652 5649 5646 5643 5639 5636 5634 5631 5628 5626 5624 5621 5619 5618 5616 5614 5612 5611 5609 5609 5609 5610 5610 5611 5612 5612 5612 5613 5613 5613 5613 5614 5614 5615 5616 5616 5618 5619 5620 5621 5621 5621 5622 5623 5624
5689 5688 5688 5688 5687 5687 5686 5685 5685 5684 5683 5682 5680 5679 5677 5674 5672 5670 5667 5665 5662 5659 5656 5653 5650 5646 5643 5640 5637 5634 5631 5628 5626 5623 5621 5619 5617 5616 5614 5613 5611 5610 5609 5609 5609 5609 5609 5609 5610 5610 5610 5610 5610 5611 5611 5611 5612 5613 5613 5614 5615 5616 5617 5617 5618 5618 5619 5619 5619
5686 5686 5686 5685 5685 5684 5684 5683 5682 5682 5680 5679 5678 5676 5674 5672 5670 5667 5665 5662 5660 5657 5654 5651 5648 5644 5641 5638 5635 5632 5629 5626 5624 5621 5619 5617 5615 5614 5613 5611 5610 5609 5608 5608 5608 5607 5608 5608 5608 5608 5608 5608 5609 5609 5609 5609 5610 5611 5611 5611 5612 5612 5613 5613 5614 5615 5616 5616 5617
5684 5684 5683 5683 5682 5682 5681 5681 5680 5679 5678 5677 5675 5674 5671 5669 5667 5665 5662 5660 5657 5654 5652 5649 5646 5643 5640 5637 5634 5630 5628 5625 5622 5619 5617 5615 5614 5612 5611 5610 5609 5608 5607 5607 5606 5606 5606 5606 5606 5606 5606 5606 5607 5607 5607 5609 5609 5609 5609 5609 5609 5609 5609 5610 5611 5612 5613 5614 5614
5682 5681 5681 5680 5680 5679 5679 5679 5678 5677 5676 5674 5673 5671 5669 5667 5665 5663 5660 5658 5655 5653 5650 5647 5644 5641 5638 5635 5632 5629 5626 5624 5621 5618 5616 5614 5612 5611 5609 5608 5607 5606 5606 5605 5604 5604 5604 5604 5604 5604 5604 5604 5605 5605 5606 5607 5607 5607 5606 5606 5606 5606 5607 5607 5608 5608 5609 5610 5612
5679 5679 5679 5678 5678 5677 5677 5676 5675 5674 5674 5672 5670 5669 5667 5665 5663 5661 5658 5656 5653 5651 5648 5645 5643 5640 5637 5634 5631 5628 5625 5623 5620 5618 5615 5613 5611 5609 5608 5607 5606 5605 5604 5603 5603 5602 5602 5602 5602 5602 5602 5603 5603 5604 5605 5604 5604 5604 5603 5603 5604 5604 5604 5605 5605 5606 5606 5607 5609
5677 5677 5676 5676 5675 5675 5674 5674 5673 5672 5671 5670 5668 5666 5665 5663 5661 5659 5656 5654 5652 5649 5646 5644 5641 5639 5636 5633 5630 5627 5624 5622 5619 5617 5614 5612 5610 5608 5607 5605 5604 5604 5603 5602 5601 5601 5600 5600 5600 5601 5601 5602 5602 5603 5602 5601 5601 5601 5601 5601 5601 5602 5602 5603 5603 5604 5604 5605 5606
5675 5674 5674 5674 5673 5673 5672 5672 5671 5670 5669 5667 5666 5664 5663 5661 5659 5657 5655 5652 5650 5648 5645 5642 5640 5637 5634 5632 5629 5626 5624 5621 5619 5616 5614 5612 5609 5608 5606 5604 5603 5602 5602 5601 5600 5600 5599 5599 5599 5599 5599 5601 5602 5601 5600 5599 5599 5599 5599 5599 5599 5599 5600 5600 5601 5602 5603 5603 5604
5673 5673 5672 5672 5671 5670 5670 5669 5668 5667 5666 5665 5664 5662 5661 5659 5657 5655 5653 5651 5649 5646 5644 5641 5639 5636 5634 5631 5629 5626 5624 5621 5618 5616 5614 5611 5609 5607 5606 5604 5603 5602 5601 5600 5599 5599 5599 5598 5598 5597 5598 5598 5598 5598 5597 5597 5597 5597 5597 5597 5597 5598 5598 5599 5599 5600 5600 5601 5602
5671 5671 5670 5670 5669 5668 5668 5667 5666 5665 5664 5663 5662 5660 5659 5657 5655 5654 5652 5649 5647 5644 5642 5640 5638 5635 5633 5630 5628 5626 5623 5621 5618 5616 5613 5611 5609 5607 5605 5604 5602 5601 5600 5599 5599 5598 5598 5599 5599 5599 5597 5596 5596 5596 5596 5596 5596 5595 5595 5595 5596 5596 5597 5597 5598 5598 5599 5599 5600
5669 5669 5668 5668 5667 5666 5665 5664 5664 5663 5662 5661 5659 5658 5657 5655 5654 5652 5650 5648 5646 5643 5641 5639 5636 5634 5632 5630 5628 5625 5623 5621 5618 5616 5613 5611 5609 5607 5605 5604 5602 5601 5600 5599 5598 5598 5597 5598 5598 5597 5596 5595 5595 5595 5595 5594 5594 5594 5594 5595 5595 5595 5596 5596 5597 5597 5598 5598 5599
5668 5667 5666 5666 5665 5664 5663 5662 5661 5660 5659 5658 5657 5656 5654 5653 5652 5650 5648 5646 5644 5642 5640 5638 5635 5634 5631 5629 5627 5625 5623 5620 5618 5616 5614 5611 5609 5608 5606 5604 5602 5601 5599 5599 5598 5597 5596 5596 5595 5595 5595 5594 5594 5594 5594 5594 5594 5594 5594 5594 5594 5595 5595 5596 5596 5596 5597 5597 5598
5666 5665 5664 5664 5663 5662 5661 5660 5659 5658 5657 5656 5655 5654 5653 5651 5650 5648 5647 5645 5643 5641 5639 5637 5634 5633 5631 5629 5627 5624 5622 5620 5618 5616 5614 5612 5610 5608 5606 5604 5603 5601 5600 5599 5598 5597 5596 5596 5595 5595 5594 5594 5594 5593 5593 5593 5593 5593 5594 5594 5594 5594 5595 5595 5595 5596 5596 5596 5596
5664 5663 5662 5662 5661 5660 5659 5658 5657 5656 5655 5654 5653 5652 5650 5649 5648 5646 5645 5643 5641 5639 5637 5635 5634 5632 5630 5628 5626 5624 5622 5620 5618 5616 5614 5612 5610 5609 5607 5605 5604 5602 5601 5599 5598 5597 5597 5596 5595 5595 5594 5594 5594 5594 5594 5593 5593 5593 5594 5594 5594 5594 5594 5594 5594 5594 5595 5595 5595
5662 5661 5661 5660 5659 5658 5657 5656 5655 5654 5653 5652 5651 5650 5649 5647 5646 5644 5643 5641 5640 5638 5636 5634 5633 5631 5629 5627 5625 5624 5621 5619 5618 5616 5614 5612 5611 5609 5608 5606 5605 5604 5602 5601 5600 5599 5598 5597 5596 5596 5595 5595 5594 5594 5594 5594 5594 5594 5594 5593 5593 5593 5593 5593 5593 5594 5594 5594 5594
5660 5660 5659 5658 5657 5657 5655 5654 5654 5652 5651 5650 5649 5648 5647 5645 5644 5643 5642 5640 5639 5637 5635 5633 5632 5630 5628 5626 5624 5623 5621 5619 5617 5616 5614 5612 5611 5609 5608 5607 5605 5604 5603 5602 5601 5600 5599 5598 5597 5596 5596 5595 5595 5594 5594 5594 5594 5593 5593 5593 5593 5593 5592 5592 5592 5592 5592 5592 5592
5659 5658 5657 5657 5656 5655 5654 5653 5652 5651 5650 5649 5648 5646 5645 5644 5643 5641 5640 5639 5637 5636 5634 5632 5631 5629 5627 5625 5624 5622 5620 5619 5617 5615 5614 5612 5611 5609 5608 5607 5605 5604 5603 5602 5601 5600 5599 5599 5598 5597 5596 5595 5595 5594 5594 5594 5593 5593 5592 5592 5592 5592 5592 5592 5591 5591 5591 5591 5591
5657 5656 5656 5655 5654 5653 5652 5651 5650 5649 5648 5647 5646 5645 5644 5642 5641 5640 5639 5637 5636 5634 5633 5632 5630 5628 5627 5625 5623 5621 5620 5618 5617 5615 5614 5612 5610 5609 5608 5606 5605 5604 5603 5602 5601 5600 5599 5598 5597 5597 5596 5595 5594 5594 5593 5592 5592 5592 5592 5591 5591 5591 5591 5591 5590 5590 5590 5590 5590
5655 5654 5654 5653 5652 5651 5650 5649 5649 5648 5647 5646 5644 5643 5642 5641 5640 5639 5637 5636 5635 5634 5632 5631 5629 5628 5626 5624 5622 5621 5619 5618 5616 5615 5613 5612 5610 5609 5608 5606 5605 5604 5603 5601 5600 5599 5599 5598 5597 5596 5595 5594 5594 5593 5592 5592 5592 5592 5591 5591 5591 5590 5590 5589 5589 5589 5589 5589 5588
5653 5653 5652 5651 5650 5649 5649 5648 5647 5646 5645 5644 5643 5642 5641 5639 5639 5637 5636 5635 5634 5632 5631 5630 5628 5627 5625 5623 5622 5620 5619 5617 5615 5614 5613 5611 5610 5609 5607 5606 5604 5603 5602 5601 5600 5599 5598 5597 5596 5595 5594 5594 5593 5593 5593 5593 5592 5592 5591 5591 5590 5590 5589 5589 5588 5588 5587 5587 5587
5652 5651 5650 5649 5649 5648 5647 5646 5646 5645 5644 5643 5642 5641 5639 5639 5637 5636 5635 5634 5632 5631 5630 5629 5627 5626 5624 5623 5621 5619 5618 5616 5615 5613 5612 5610 5609 5608 5606 5605 5604 5602 5601 5600 5599 5598 5597 5597 5596 5595 5595 5594 5594 5594 5593 5593 5592 5592 5591 5590 5590 5589 5588 5588 5587 5586 5586 5586 5585
5650 5649 5649 5648 5647 5647 5646 5645 5644 5643 5642 5641 5640 5639 5639 5637 5636 5635 5634 5633 5631 5630 5629 5628 5626 5625 5623 5622 5620 5619 5617 5615 5614 5612 5611 5609 5608 5607 5605 5604 5603 5602 5601 5600 5599 5599 5598 5597 5597 5596 5595 5595 5594 5594 5593 5592 5592 5591 5590 5590 5589 5588 5587 5587 5586 5585 5585 5584 5584
5649 5648 5647 5647 5646 5645 5645 5644 5643 5642 5641 5640 5639 5638 5637 5636 5635 5634 5633 5632 5630 5629 5628 5627 5625 5624 5622 5621 5619 5618 5616 5614 5613 5612 5610 5609 5608 5606 5605 5604 5604 5603 5602 5601 5600 5599 5599 5598 5597 5596 5595 5594 5594 5593 5593 5592 5591 5591 5590 5589 5588 5587 5587 5586 5585 5584 5584 5583 5583